Siskiyou Pass Past Weather

Last 30 Days

High: 97ºf @2:54 PM    Low: 59ºf @6:54 AM     Approx. Precipitation / Rain Total: in.
Time (PDT)Temp. (ºf)Humidity (%)Dew Point (ºf)Barometer (inHG)Wind Speed (mph)Wind DirectionWind Gust (mph)1hr. Precip / Rain Total (in.)Snow Depth
5:54 PM912145.6---4.34--
4:54 PM941539.27-0.87sw6.08--
3:54 PM961642.52-0.87sw6.95--
2:54 PM971541.64-1.74wsw7.82--
1:54 PM961337.19-1.74s4.34--
12:54 PM922449.99-0.87wnw6.95--
11:54 AM892851.62-1.74wnw8.69--
10:54 AM843150.08-2.61wnw6.95--
9:54 AM793851.2-2.61wnw9.56--
8:54 AM754250.33-0.87wnw6.95--
7:54 AM684948.12-1.74nw5.21--
6:54 AM596045.13---2.61--
5:54 AM596246---3.48--
4:54 AM615745.65-0.87nnw4.34--
3:54 AM606046.07-0.87ne2.61--
2:54 AM635044.06---5.21--
1:54 AM694043.66-1.74n6.08--
12:54 AM713743.4-1.74nne8.69--
High: 94ºf @2:54 PM    Low: 62ºf @2:54 AM     Approx. Precipitation / Rain Total: in.
Time (PDT)Temp. (ºf)Humidity (%)Dew Point (ºf)Barometer (inHG)Wind Speed (mph)Wind DirectionWind Gust (mph)1hr. Precip / Rain Total (in.)Snow Depth
11:54 PM733442.96-1.74n10.43--
10:54 PM743343.06-2.61nw12.17--
9:54 PM763143.16-3.48wnw11.3--
8:54 PM792843.09-2.61nnw12.17--
7:54 PM832240.21-2.61nnw11.3--
6:54 PM872142.31-0.87w5.21--
5:54 PM882345.52-0.87w5.21--
4:54 PM901840.77-0.87wsw6.95--
3:54 PM911942.98-0.87wsw6.95--
2:54 PM941742.5-1.74w6.95--
1:54 PM921943.79-1.74w8.69--
12:54 PM892346.35-2.61wnw9.56--
11:54 AM862546.05-1.74wnw8.69--
10:54 AM832745.54-2.61nnw6.95--
9:54 AM783044.03-2.61nw9.56--
2:54 AM624339.25---4.34--
1:54 AM653738.09-0.87se7.82--
12:54 AM703037.13-3.48n11.3--
High: 91ºf @1:54 PM    Low: 57ºf @2:54 AM     Approx. Precipitation / Rain Total: in.
Time (PDT)Temp. (ºf)Humidity (%)Dew Point (ºf)Barometer (inHG)Wind Speed (mph)Wind DirectionWind Gust (mph)1hr. Precip / Rain Total (in.)Snow Depth
11:54 PM713239.65-2.61n13.03--
10:54 PM723240.52-1.74nw9.56--
9:54 PM743040.59-1.74nnw7.82--
2:54 PM911638.55-1.74nw7.82--
1:54 PM911638.55-0.87wsw6.95--
12:54 PM882244.35-2.61wnw6.95--
11:54 AM842645.4-2.61nw7.82--
10:54 AM802944.86-1.74wnw10.43--
9:54 AM773244.86-2.61wnw8.69--
2:54 AM575340.04-0.87ene3.48--
1:54 AM595241.4-0.87ene4.34--
12:54 AM653838.77---7.82--
High: 89ºf @2:54 PM    Low: 46ºf @6:54 AM     Approx. Precipitation / Rain Total: in.
Time (PDT)Temp. (ºf)Humidity (%)Dew Point (ºf)Barometer (inHG)Wind Speed (mph)Wind DirectionWind Gust (mph)1hr. Precip / Rain Total (in.)Snow Depth
11:54 PM683539.32-1.74nnw9.56--
10:54 PM693338.69-0.87nw6.95--
9:54 PM712937.13-0.87wnw8.69--
2:54 PM891331.75-2.61sse6.95--
1:54 PM881839.15-0.87sw5.21--
12:54 PM862242.7-0.87wsw5.21--
11:54 AM832947.44-1.74nw6.08--
10:54 AM773446.46-2.61wnw6.95--
9:54 AM734047.24-1.74wnw6.08--
8:54 AM684948.12-0.87wnw4.34--
7:54 AM585943.75-1.74ne4.34--
6:54 AM467237.49-2.61ne4.34--
5:54 AM476937.36-2.61ne5.21--
4:54 AM496939.28-1.74ne4.34--
3:54 AM506237.5-2.61ne4.34--
2:54 AM526440.2---3.48--
1:54 AM555740.05-1.74ne4.34--
12:54 AM624138.03-0.87ene5.21--
High: 84ºf @2:54 PM    Low: 46ºf @6:54 AM     Approx. Precipitation / Rain Total: in.
Time (PDT)Temp. (ºf)Humidity (%)Dew Point (ºf)Barometer (inHG)Wind Speed (mph)Wind DirectionWind Gust (mph)1hr. Precip / Rain Total (in.)Snow Depth
11:54 PM653536.68-1.74n7.82--
10:54 PM663638.28-0.87nnw7.82--
9:54 PM633836.99-1.74ene3.48--
8:54 PM644441.65-2.61ne3.48--
7:54 PM752738.74---6.95--
6:54 PM811934.84-0.87se8.69--
5:54 PM811528.98-2.61se10.43--
4:54 PM821428.09-2.61sse13.03--
3:54 PM831428.88-5.21se13.03--
2:54 PM841531.36-4.34se12.17--
12:54 PM832037.77-4.34sse10.43--
11:54 AM812137.37-5.21se13.03--
10:54 AM802642.01-2.61se12.17--
9:54 AM773043.17-2.61se6.08--
8:54 AM704547.67---2.61--
7:54 AM605644.26---2.61--
6:54 AM468240.82-1.74ne3.48--
5:54 AM468341.13---2.61--
4:54 AM477940.83---1.74--
3:54 AM477238.45---3.48--
2:54 AM495734.44---3.48--
1:54 AM495734.44---2.61--
12:54 AM505434.02-1.74ne3.48--
High: 84ºf @2:54 PM    Low: 43ºf @6:54 AM     Approx. Precipitation / Rain Total: in.
Time (PDT)Temp. (ºf)Humidity (%)Dew Point (ºf)Barometer (inHG)Wind Speed (mph)Wind DirectionWind Gust (mph)1hr. Precip / Rain Total (in.)Snow Depth
11:54 PM524732.4-0.87ne3.48--
10:54 PM554433.49-0.87ene3.48--
9:54 PM594135.33-0.87e4.34--
8:54 PM634239.54-1.74ne3.48--
7:54 PM733039.72---3.48--
6:54 PM811732.06-0.87sse5.21--
5:54 PM801731.26-1.74sse8.69--
4:54 PM811732.06-1.74ese9.56--
3:54 PM821631.37-1.74ssw10.43--
2:54 PM841632.96-2.61s9.56--
1:54 PM841734.48-1.74sw11.3--
12:54 PM822036.95-4.34se11.3--
11:54 AM811934.84-5.21se11.3--
10:54 AM782033.67-5.21ese10.43--
9:54 AM762739.59-2.61se6.08--
8:54 AM693741.63-0.87e2.61--
7:54 AM585039.47---3.48--
6:54 AM437535.63-1.74ne3.48--
5:54 AM437435.29---2.61--
4:54 AM446733.76---3.48--
3:54 AM446834.13---4.34--
2:54 AM456433.57-0.87nne2.61--
High: 81ºf @2:54 PM    Low: 51ºf @11:54 PM     Approx. Precipitation / Rain Total: in.
Time (PDT)Temp. (ºf)Humidity (%)Dew Point (ºf)Barometer (inHG)Wind Speed (mph)Wind DirectionWind Gust (mph)1hr. Precip / Rain Total (in.)Snow Depth
11:54 PM515434.95-0.87ne4.34--
10:54 PM545337.26-1.74ne2.61--
9:54 PM584838.42-1.74ne3.48--
8:54 PM634440.74---4.34--
7:54 PM732434.07-0.87se5.21--
6:54 PM781932.39-1.74se6.95--
5:54 PM772134.06-1.74s9.56--
4:54 PM782134.89-4.34se13.03--
3:54 PM792236.89-1.74ssw8.69--
2:54 PM812238.55-2.61sse7.82--
1:54 PM802439.95-3.48sse13.03--
12:54 PM792641.17-1.74ssw8.69--
11:54 AM772942.29-2.61sse10.43--
10:54 AM733342.18-4.34se13.9--
9:54 AM703742.52-4.34se11.3--
8:54 AM683942.11-4.34se10.43--
7:54 AM644240.44-4.34se8.69--
6:54 AM594939.87-4.34se8.69--
5:54 AM604940.78-4.34se9.56--
4:54 AM614941.7-3.48se7.82--
3:54 AM634641.89-3.48se8.69--
2:54 AM634541.32-3.48se9.56--
1:54 AM644039.19-3.48ese8.69--
12:54 AM663839.66-3.48ese7.82--
High: 86ºf @12:54 PM    Low: 50ºf @5:54 AM     Approx. Precipitation / Rain Total: in.
Time (PDT)Temp. (ºf)Humidity (%)Dew Point (ºf)Barometer (inHG)Wind Speed (mph)Wind DirectionWind Gust (mph)1hr. Precip / Rain Total (in.)Snow Depth
11:54 PM663235.29-2.61ese6.08--
10:54 PM673236.16-2.61ese6.08--
9:54 PM693036.27-2.61e6.08--
8:54 PM712735.33-2.61se6.95--
7:54 PM752435.75-3.48se10.43--
6:54 PM801934.02-4.34se10.43--
5:54 PM802237.72-2.61sse8.69--
4:54 PM822340.52-2.61s10.43--
3:54 PM842544.37-2.61sse14.77--
2:54 PM852545.21-5.21se14.77--
1:54 PM852545.21-4.34sse11.3--
12:54 PM862647.09-2.61sse10.43--
11:54 AM852444.14-3.48s11.3--
10:54 AM793044.9-1.74sse10.43--
9:54 AM792944.01-2.61sse8.69--
8:54 AM724448.88---2.61--
7:54 AM625445.16---4.34--
6:54 AM506438.31-0.87ne3.48--
5:54 AM506438.31-0.87ne4.34--
4:54 AM516238.44-1.74nne3.48--
3:54 AM525938.12-1.74ne2.61--
2:54 AM545437.73-1.74ne3.48--
1:54 AM565339.11-0.87ene3.48--
12:54 AM555840.5-0.87nne2.61--
High: 90ºf @1:54 PM    Low: 55ºf @6:54 AM     Approx. Precipitation / Rain Total: in.
Time (PDT)Temp. (ºf)Humidity (%)Dew Point (ºf)Barometer (inHG)Wind Speed (mph)Wind DirectionWind Gust (mph)1hr. Precip / Rain Total (in.)Snow Depth
11:54 PM575340.04---2.61--
10:54 PM595140.9-1.74ne3.48--
9:54 PM624942.62-0.87nne1.74--
8:54 PM674142.52-0.87ne2.61--
7:54 PM782134.89-0.87sse3.48--
6:54 PM821631.37-0.87s6.95--
5:54 PM821428.09-0.87e7.82--
4:54 PM861329.42-2.61sse11.3--
3:54 PM881534.53-1.74ssw10.43--
2:54 PM891636.95-5.21se10.43--
1:54 PM902144.78-1.74se13.03--
12:54 PM892143.96-2.61sse12.17--
11:54 AM872546.89-0.87ssw9.56--
10:54 AM842645.4-2.61sse7.82--
9:54 AM813550.74-1.74sse5.21--
8:54 AM724750.65---2.61--
7:54 AM626248.83-0.87ne3.48--
6:54 AM556443.05-1.74ne4.34--
5:54 AM567447.83-1.74ne3.48--
4:54 AM577248.06---1.74--
3:54 AM566945.97-1.74ne3.48--
2:54 AM575741.92---2.61--
1:54 AM586044.19-0.87ne2.61--
12:54 AM595341.89---3.48--
High: 90ºf @2:54 PM    Low: 51ºf @3:54 AM     Approx. Precipitation / Rain Total: in.
Time (PDT)Temp. (ºf)Humidity (%)Dew Point (ºf)Barometer (inHG)Wind Speed (mph)Wind DirectionWind Gust (mph)1hr. Precip / Rain Total (in.)Snow Depth
11:54 PM594839.34-0.87ene4.34--
10:54 PM614740.62-0.87ene3.48--
9:54 PM644843.91-0.87ene3.48--
8:54 PM694345.56-0.87ne4.34--
7:54 PM821732.87-3.48se9.56--
6:54 PM871228.24-2.61se8.69--
5:54 PM861532.95-0.87s10.43--
4:54 PM881737.69-1.74s9.56--
3:54 PM892245.18-4.34se11.3--
2:54 PM902549.41-4.34se12.17--
1:54 PM902650.47-3.48sse12.17--
12:54 PM892649.62-3.48se8.69--
11:54 AM882951.72-1.74sse11.3--
10:54 AM853352.64-0.87s5.21--
9:54 AM803650.62-0.87s5.21--
8:54 AM754350.97-0.87e2.61--
7:54 AM617051.14---1.74--
6:54 AM537545.29-0.87ne5.21--
5:54 AM517543.36-1.74nne3.48--
4:54 AM517141.93-1.74nne4.34--
3:54 AM517543.36-0.87nne3.48--
2:54 AM528046.02-0.87nne3.48--
1:54 AM538147.33-1.74ne2.61--
12:54 AM557747.92---2.61--
High: 86ºf @2:54 PM    Low: 56ºf @6:54 AM     Approx. Precipitation / Rain Total: in.
Time (PDT)Temp. (ºf)Humidity (%)Dew Point (ºf)Barometer (inHG)Wind Speed (mph)Wind DirectionWind Gust (mph)1hr. Precip / Rain Total (in.)Snow Depth
11:54 PM567347.47---2.61--
10:54 PM606347.37-0.87ene2.61--
9:54 PM635847.99-0.87ene2.61--
8:54 PM704145.21---7.82--
7:54 PM782539.31-4.34se10.43--
6:54 PM832644.55-3.48se8.69--
5:54 PM823047.48-3.48se8.69--
4:54 PM833149.22-4.34se10.43--
3:54 PM842847.36-3.48sse12.17--
2:54 PM862748.09-2.61s9.56--
1:54 PM853251.8-3.48sse8.69--
12:54 PM843452.58-2.61sse11.3--
11:54 AM813651.5-5.21se13.03--
10:54 AM784756.11-5.21se11.3--
9:54 AM775459.06-3.48se7.82--
8:54 AM735857.33-0.87s6.08--
7:54 AM667256.71---1.74--
6:54 AM568952.8---1.74--
5:54 AM578853.48---0.87--
4:54 AM578853.48---1.74--
3:54 AM607752.77---7.82--
2:54 AM675550.29-3.48se7.82--
1:54 AM675248.79-2.61ese8.69--
12:54 AM685752.19-3.48ese7.82--
High: 84ºf @1:54 PM    Low: 59ºf @6:54 AM     Approx. Precipitation / Rain Total: in.
Time (PDT)Temp. (ºf)Humidity (%)Dew Point (ºf)Barometer (inHG)Wind Speed (mph)Wind DirectionWind Gust (mph)1hr. Precip / Rain Total (in.)Snow Depth
11:54 PM695652.64-2.61ese6.08--
10:54 PM675952.19---5.21--
9:54 PM724348.27-2.61ese6.95--
8:54 PM743947.46-3.48e9.56--
7:54 PM773446.46-6.08se11.3--
6:54 PM803247.47-4.34se12.17--
5:54 PM803247.47-4.34se12.17--
4:54 PM813147.49-4.34se12.17--
3:54 PM823148.35-6.08se13.9--
2:54 PM823249.2-5.21se15.64--
1:54 PM843150.08-6.08se16.51--
12:54 PM823350.03-6.95se17.38--
11:54 AM793750.48-8.69se15.64--
10:54 AM804154.16-6.08se13.9--
9:54 AM774252.13-6.08se13.9--
8:54 AM774654.61-2.61sse6.08--
7:54 AM697460.36---1.74--
6:54 AM599256.68-0.87ne2.61--
5:54 AM599056.07---1.74--
4:54 AM618857.42---1.74--
3:54 AM618757.1---1.74--
2:54 AM618857.42---2.61--
1:54 AM628758.08---1.74--
12:54 AM648158.05---1.74--
High: 92ºf @2:54 PM    Low: 54ºf @6:54 AM     Approx. Precipitation / Rain Total: in.
Time (PDT)Temp. (ºf)Humidity (%)Dew Point (ºf)Barometer (inHG)Wind Speed (mph)Wind DirectionWind Gust (mph)1hr. Precip / Rain Total (in.)Snow Depth
11:54 PM647756.64---2.61--
10:54 PM667357.09-0.87ene3.48--
9:54 PM697058.8---3.48--
8:54 PM746661.9-1.74ne3.48--
7:54 PM776262.96-0.87ne3.48--
6:54 PM795862.94-0.87ne3.48--
5:54 PM873656.78-0.87se7.82--
4:54 PM903155.26-3.48se9.56--
3:54 PM913055.22-4.34se10.43--
2:54 PM923156.98-3.48se10.43--
1:54 PM913257-5.21se11.3--
12:54 PM903356.99-3.48se9.56--
11:54 AM873959.01-3.48se9.56--
10:54 AM854460.61-0.87s6.08--
9:54 AM795058.75---1.74--
8:54 AM718064.51---1.74--
7:54 AM648559.39-0.87ne3.48--
6:54 AM549853.45-1.74nnw2.61--
5:54 AM559653.88-0.87ne3.48--
4:54 AM559854.44-0.87n3.48--
3:54 AM559854.44-0.87n3.48--
2:54 AM569755.16-0.87n3.48--
1:54 AM579856.44---3.48--
12:54 AM589757.15-0.87nne4.34--
High: 94ºf @2:54 PM    Low: ºf @7:54 AM     Approx. Precipitation / Rain Total: in.
Time (PDT)Temp. (ºf)Humidity (%)Dew Point (ºf)Barometer (inHG)Wind Speed (mph)Wind DirectionWind Gust (mph)1hr. Precip / Rain Total (in.)Snow Depth
11:54 PM609759.14-0.87nne3.48--
10:54 PM619659.85-0.87n3.48--
9:54 PM639762.13---2.61--
8:54 PM659663.83-0.87nne4.34--
7:54 PM689466.2-1.74ene4.34--
6:54 PM679665.82---15.64--
5:54 PM795963.43-2.61wnw6.08--
4:54 PM864763.39---3.48--
3:54 PM864562.15-1.74wnw7.82--
2:54 PM943662.93-1.74nw6.08--
1:54 PM923459.56-1.74sse6.08--
12:54 PM893759.3-1.74sse11.3--
11:54 AM864159.52-2.61sse8.69--
10:54 AM835766.17---3.48--
9:54 AM786062.97-0.87se2.61--
8:54 AM708565.27---1.74--
7:54 AM---------
5:54 AM559954.72---1.74--
4:54 AM569955.72---2.61--
3:54 AM569955.72---3.48--
2:54 AM569955.72-0.87n2.61--
1:54 AM579856.44---3.48--
12:54 AM589957.72---2.61--
High: 91ºf @3:54 PM    Low: 59ºf @11:54 PM     Approx. Precipitation / Rain Total: in.
Time (PDT)Temp. (ºf)Humidity (%)Dew Point (ºf)Barometer (inHG)Wind Speed (mph)Wind DirectionWind Gust (mph)1hr. Precip / Rain Total (in.)Snow Depth
11:54 PM599858.43-0.87nw3.48--
10:54 PM619760.14---6.08--
9:54 PM629460.25-0.87e6.08--
8:54 PM649763.13-2.61ese6.08--
7:54 PM669765.12-1.74se4.34--
6:54 PM679264.59-0.87wnw10.43--
5:54 PM729269.54---6.08--
4:54 PM729470.17-1.74nne7.82--
3:54 PM913257-1.74sse8.69--
2:54 PM903356.99-4.34se12.17--
1:54 PM903356.99-2.61sse9.56--
12:54 PM873656.78-4.34ese8.69--
11:54 AM864058.83-1.74se7.82--
10:54 AM815462.76-1.74ese6.08--
9:54 AM766663.8---1.74--
8:54 AM698564.29---2.61--
7:54 AM649562.54---3.48--
6:54 AM648559.39---1.74--
5:54 AM638658.74---1.74--
4:54 AM648559.39-0.87ene2.61--
3:54 AM638959.7-0.87ne1.74--
2:54 AM638959.7---2.61--
1:54 AM639160.33-0.87ene2.61--
12:54 AM649061-0.87nne3.48--
High: 82ºf @12:54 PM    Low: 65ºf @11:54 PM     Approx. Precipitation / Rain Total: in.
Time (PDT)Temp. (ºf)Humidity (%)Dew Point (ºf)Barometer (inHG)Wind Speed (mph)Wind DirectionWind Gust (mph)1hr. Precip / Rain Total (in.)Snow Depth
11:54 PM659162.3---1.74--
10:54 PM667858.94---4.34--
9:54 PM678060.62---3.48--
8:54 PM706758.53-1.74sse7.82--
7:54 PM726157.8-2.61sse9.56--
6:54 PM735354.84-5.21se12.17--
5:54 PM754753.38-5.21se12.17--
4:54 PM764553.11-5.21se12.17--
3:54 PM744953.61-5.21ese13.03--
2:54 PM774352.77-5.21se12.17--
1:54 PM814054.38-6.08se13.9--
12:54 PM823853.86-4.34se10.43--
11:54 AM764351.87-3.48se10.43--
10:54 AM745556.79-0.87sw6.95--
9:54 AM716156.86---3.48--
8:54 AM716156.86---4.34--
7:54 AM686756.62---2.61--
6:54 AM686354.92---8.69--
5:54 AM705854.53-6.08se13.03--
4:54 AM686254.48---6.08--
3:54 AM695552.15-0.87e3.48--
2:54 AM725052.33---4.34--
1:54 AM754049.02-3.48se9.56--
12:54 AM764150.58-1.74se9.56--
High: 94ºf @2:54 PM    Low: 62ºf @2:54 AM     Approx. Precipitation / Rain Total: in.
Time (PDT)Temp. (ºf)Humidity (%)Dew Point (ºf)Barometer (inHG)Wind Speed (mph)Wind DirectionWind Gust (mph)1hr. Precip / Rain Total (in.)Snow Depth
11:54 PM745054.16---9.56--
10:54 PM774453.4-4.34se7.82--
9:54 PM794253.92-3.48ese8.69--
8:54 PM823853.86-4.34se11.3--
7:54 PM853856.51-3.48se8.69--
6:54 PM863555.12-5.21se13.9--
5:54 PM892952.57-6.95se13.9--
4:54 PM912550.25-5.21se13.03--
3:54 PM932551.93-4.34se15.64--
2:54 PM942552.77-4.34se15.64--
1:54 PM932855.03-5.21se14.77--
12:54 PM923257.86-3.48se12.17--
11:54 AM913257-2.61se10.43--
10:54 AM844560.34-1.74sse5.21--
9:54 AM736460.09---2.61--
7:54 AM667758.58---2.61--
6:54 AM637755.67-1.74ne4.34--
5:54 AM627955.41-1.74ne3.48--
4:54 AM627855.06-0.87e1.74--
3:54 AM627654.34---1.74--
2:54 AM627453.61---3.48--
1:54 AM646953.62---3.48--
12:54 AM656854.17-1.74ne3.48--
High: 97ºf @11:54 AM    Low: 61ºf @6:54 AM     Approx. Precipitation / Rain Total: in.
Time (PDT)Temp. (ºf)Humidity (%)Dew Point (ºf)Barometer (inHG)Wind Speed (mph)Wind DirectionWind Gust (mph)1hr. Precip / Rain Total (in.)Snow Depth
11:54 PM676554.84---2.61--
10:54 PM696154.98-0.87ene3.48--
9:54 PM716357.76-0.87ne2.61--
8:54 PM755557.72-1.74nne3.48--
7:54 PM833854.74-0.87se6.95--
6:54 PM854359.96-0.87ene6.08--
5:54 PM873959.01-4.34se13.03--
4:54 PM903760.18-5.21se14.77--
3:54 PM953260.46-5.21se13.03--
2:54 PM942956.85-5.21se13.03--
1:54 PM963059.5-2.61se12.17--
12:54 PM972555.28-3.48se11.3--
11:54 AM972656.37-1.74se6.95--
10:54 AM933157.84-1.74sse5.21--
9:54 AM854158.63---2.61--
8:54 AM814557.63---1.74--
7:54 AM725655.43-0.87ene3.48--
6:54 AM616348.31-1.74nne3.48--
5:54 AM625746.59-0.87nne4.34--
4:54 AM625746.59-1.74nne3.48--
3:54 AM655246.94-1.74ne4.34--
2:54 AM674746.1-1.74ne3.48--
1:54 AM684847.57-0.87ne4.34--
12:54 AM694747.92-1.74nne5.21--
High: 106ºf @2:54 PM    Low: 60ºf @5:54 AM     Approx. Precipitation / Rain Total: in.
Time (PDT)Temp. (ºf)Humidity (%)Dew Point (ºf)Barometer (inHG)Wind Speed (mph)Wind DirectionWind Gust (mph)1hr. Precip / Rain Total (in.)Snow Depth
11:54 PM704547.67-1.74ene4.34--
10:54 PM744350.07-0.87nne2.61--
9:54 PM783749.6-0.87n4.34--
8:54 PM833350.9-0.87ene3.48--
7:54 PM863454.33-1.74ene4.34--
6:54 PM942148.07-0.87sw15.64--
5:54 PM961845.61-0.87s9.56--
4:54 PM1021137.54-3.48ese8.69--
3:54 PM1031342.6-4.34ene8.69--
2:54 PM1061344.92-0.87wnw6.95--
1:54 PM1021239.77-3.48ene10.43--
12:54 PM1051751.29-0.87sw4.34--
11:54 AM1031952.7-0.87wsw4.34--
10:54 AM992152.17---3.48--
9:54 AM942956.85-0.87sse2.61--
8:54 AM854561.25---3.48--
7:54 AM734952.7-1.74ne4.34--
6:54 AM616147.45-2.61nne4.34--
5:54 AM605845.18-0.87ne4.34--
4:54 AM615745.65-1.74nne4.34--
3:54 AM625746.59-0.87nne4.34--
2:54 AM645044.98-2.61ne4.34--
1:54 AM664443.46-1.74ne5.21--
12:54 AM704346.46---3.48--
High: 105ºf @2:54 PM    Low: 61ºf @5:54 AM     Approx. Precipitation / Rain Total: in.
Time (PDT)Temp. (ºf)Humidity (%)Dew Point (ºf)Barometer (inHG)Wind Speed (mph)Wind DirectionWind Gust (mph)1hr. Precip / Rain Total (in.)Snow Depth
11:54 PM763747.83-1.74e4.34--
10:54 PM773244.86---3.48--
9:54 PM783144.89-0.87ne4.34--
8:54 PM793649.74-1.74ne4.34--
7:54 PM853856.51-1.74ne3.48--
6:54 PM991746.5-1.74w7.82--
5:54 PM1001544-0.87sw3.48--
4:54 PM1001747.3-0.87wsw5.21--
3:54 PM1031444.54-1.74sse8.69--
2:54 PM1051446.1-1.74ssw5.21--
1:54 PM1041648.87-0.87sw5.21--
12:54 PM1022053.29-0.87w4.34--
11:54 AM992253.44-0.87sw5.21--
10:54 AM962756.57-0.87w6.08--
9:54 AM913357.86---3.48--
8:54 AM834861.26-0.87ene3.48--
7:54 AM725253.4-2.61ne5.21--
6:54 AM626750.91-2.61ne4.34--
5:54 AM617151.53-2.61ne4.34--
4:54 AM626951.71-1.74e6.08--
3:54 AM636350.2-1.74nne4.34--
2:54 AM636350.2-1.74nne5.21--
1:54 AM665850.79-0.87ene4.34--
12:54 AM695451.65-0.87ne5.21--
High: 100ºf @2:54 PM    Low: 59ºf @5:54 AM     Approx. Precipitation / Rain Total: in.
Time (PDT)Temp. (ºf)Humidity (%)Dew Point (ºf)Barometer (inHG)Wind Speed (mph)Wind DirectionWind Gust (mph)1hr. Precip / Rain Total (in.)Snow Depth
11:54 PM705352.07-1.74ne6.95--
10:54 PM715252.48-1.74ene4.34--
9:54 PM744752.47-0.87ne4.34--
8:54 PM794253.92-2.61e5.21--
7:54 PM853352.64-0.87nne7.82--
6:54 PM951946.23-3.48sse9.56--
5:54 PM961642.52-2.61se6.95--
4:54 PM971541.64-3.48se9.56--
3:54 PM991949.47-0.87ssw7.82--
2:54 PM1001645.7-1.74sse9.56--
1:54 PM992152.17-0.87ssw7.82--
12:54 PM962352.17-2.61se7.82--
11:54 AM942451.66-1.74se7.82--
10:54 AM913156.12-0.87se3.48--
9:54 AM843553.37-0.87ssw3.48--
8:54 AM784454.3---1.74--
7:54 AM676253.54-0.87ne4.34--
6:54 AM607050.18---3.48--
5:54 AM596848.45-0.87ne2.61--
4:54 AM616348.31-0.87ne3.48--
3:54 AM625947.5-1.74ne3.48--
2:54 AM625746.59-1.74ne3.48--
1:54 AM625646.12-0.87ne3.48--
12:54 AM645346.52---3.48--
High: 95ºf @12:54 PM    Low: 55ºf @5:54 AM     Approx. Precipitation / Rain Total: in.
Time (PDT)Temp. (ºf)Humidity (%)Dew Point (ºf)Barometer (inHG)Wind Speed (mph)Wind DirectionWind Gust (mph)1hr. Precip / Rain Total (in.)Snow Depth
11:54 PM665348.37---4.34--
10:54 PM694949.03---2.61--
9:54 PM734650.98-0.87ne3.48--
8:54 PM773950.13-0.87n6.95--
7:54 PM832745.54-1.74se6.08--
6:54 PM872849.92---10.43--
5:54 PM891941.35-6.08se13.9--
4:54 PM901840.77-5.21se13.9--
3:54 PM912044.32-6.08se13.9--
2:54 PM892548.57-6.95se15.64--
1:54 PM932147.25-3.48sse11.3--
12:54 PM952148.89-2.61sse9.56--
11:54 AM922652.15-1.74s7.82--
10:54 AM902852.47-1.74n3.48--
9:54 AM843754.89-1.74nne3.48--
8:54 AM773849.43-0.87e2.61--
7:54 AM666252.6---3.48--
6:54 AM567247.1-1.74ne2.61--
5:54 AM556844.63-1.74nne2.61--
4:54 AM576746.15-0.87ne2.61--
3:54 AM596246-0.87ne2.61--
2:54 AM615946.57-0.87ne2.61--
1:54 AM625646.12---1.74--
12:54 AM645246.02-0.87nne2.61--
High: 100ºf @2:54 PM    Low: 54ºf @5:54 AM     Approx. Precipitation / Rain Total: in.
Time (PDT)Temp. (ºf)Humidity (%)Dew Point (ºf)Barometer (inHG)Wind Speed (mph)Wind DirectionWind Gust (mph)1hr. Precip / Rain Total (in.)Snow Depth
11:54 PM664745.18---1.74--
10:54 PM713844.1---5.21--
9:54 PM762941.43-0.87n5.21--
8:54 PM832543.52---10.43--
7:54 PM881940.54-5.21ese9.56--
6:54 PM931436.73-5.21se12.17--
5:54 PM951336.41-3.48se10.43--
3:54 PM981338.74-4.34se9.56--
2:54 PM1001136.03-1.74sse8.69--
1:54 PM1001442.2-1.74s6.95--
12:54 PM981847.22-0.87s7.82--
11:54 AM942046.77-0.87wsw3.48--
10:54 AM912246.83-0.87w3.48--
9:54 AM872849.92-0.87wsw2.61--
8:54 AM784655.52------
7:54 AM665649.85-0.87nne3.48--
5:54 AM546743.29-0.87ne3.48--
4:54 AM556744.25-0.87nne3.48--
3:54 AM576444.94-1.74nne4.34--
1:54 AM605644.26-0.87n4.34--
12:54 AM615444.23---3.48--
High: 97ºf @3:54 PM    Low: 54ºf @4:54 AM     Approx. Precipitation / Rain Total: in.
Time (PDT)Temp. (ºf)Humidity (%)Dew Point (ºf)Barometer (inHG)Wind Speed (mph)Wind DirectionWind Gust (mph)1hr. Precip / Rain Total (in.)Snow Depth
11:54 PM644944.45-0.87nne3.48--
10:54 PM664544.04-1.74nne4.34--
9:54 PM704044.56-1.74ne4.34--
8:54 PM744450.69-1.74ne4.34--
7:54 PM823853.86-1.74ne3.48--
6:54 PM932248.49---2.61--
5:54 PM922045.14-0.87wsw5.21--
4:54 PM951336.41-1.74s6.08--
3:54 PM971541.64-0.87wsw5.21--
2:54 PM961439.08-1.74s6.08--
1:54 PM951946.23-1.74w8.69--
12:54 PM922247.66-2.61nw7.82--
11:54 AM892447.48-2.61wnw7.82--
10:54 AM832846.51-3.48nw8.69--
9:54 AM793145.76-3.48nw7.82--
8:54 AM753646.22-2.61nw6.08--
7:54 AM664745.18-1.74ene4.34--
6:54 AM545940-2.61ne5.21--
5:54 AM545638.66-2.61ne5.21--
4:54 AM545538.2-2.61ne4.34--
3:54 AM585139.97-2.61ne5.21--
2:54 AM614640.07-0.87nw5.21--
1:54 AM624540.41---2.61--
12:54 AM664141.62---3.48--
High: 91ºf @6:54 PM    Low: 71ºf @11:54 PM     Approx. Precipitation / Rain Total: in.
Time (PDT)Temp. (ºf)Humidity (%)Dew Point (ºf)Barometer (inHG)Wind Speed (mph)Wind DirectionWind Gust (mph)1hr. Precip / Rain Total (in.)Snow Depth
11:54 PM713239.65-0.87ene7.82--
10:54 PM742939.71-1.74nnw12.17--
9:54 PM752536.78-1.74nnw7.82--
8:54 PM782438.27-0.87nw10.43--
7:54 PM832139.02-2.61nw8.69--
6:54 PM911740.1-1.74wnw6.95--
Past Weather Disclaimer Note regarding "Approx. Precipitation / Rain Total"

Currently

Fair 94°F
29.95in
Barometer
13%
Humidity
North 0.0mph
Wind
Fair

Past Weather Nearby

More Local Information

Bookmark and Share

Go Ad Free - Become a Member